H1 CPF 2 NER 2021 11 23 9 327 01 glonass116 H2 0907001 9116 36111 2021 11 23 0 0 0 2021 11 26 23 45 0 900 1 1 0 0 0 1 H9 10 0 59541 0.00000 0 13791153.091 18908809.992 -10143975.342 10 0 59541 900.00000 0 14364702.417 19817238.452 -7177982.093 10 0 59541 1800.00000 0 14815834.925 20358030.732 -4072520.602 10 0 59541 2700.00000 0 15090101.969 20542608.523 -887918.856 10 0 59541 3600.00000 0 15138044.300 20394626.899 2313940.426 10 0 59541 4500.00000 0 14917475.945 19948813.534 5470825.641 10 0 59541 5400.00000 0 14395475.184 19249357.626 8521370.071 10 0 59541 6300.00000 0 13549997.365 18347916.998 11406269.381 10 0 59541 7200.00000 0 12371040.323 17301327.995 14069438.858 10 0 59541 8100.00000 0 10861312.008 16169115.421 16459107.361 10 0 59541 9000.00000 0 9036370.977 15010908.001 18528826.349 10 0 59541 9900.00000 0 6924232.748 13883868.794 20238374.077 10 0 59541 10800.00000 0 4564457.433 12840249.064 21554537.435 10 0 59541 11700.00000 0 2006755.836 11925168.673 22451756.411 10 0 59541 12600.00000 0 -690828.543 11174716.310 22912618.930 10 0 59541 13500.00000 0 -3464086.599 10614449.147 22928196.847 10 0 59541 14400.00000 0 -6245070.300 10258354.567 22498216.959 10 0 59541 15300.00000 0 -8964678.588 10108317.086 21631063.961 10 0 59541 16200.00000 0 -11555295.675 10154112.302 20343615.535 10 0 59541 17100.00000 0 -13953372.720 10373927.529 18660912.802 10 0 59541 18000.00000 0 -16101846.121 10735386.681 16615672.494 10 0 59541 18900.00000 0 -17952292.499 11197035.745 14247650.230 10 0 59541 19800.00000 0 -19466731.410 11710225.808 11602867.032 10 0 59541 20700.00000 0 -20619001.271 12221313.825 8732714.063 10 0 59541 21600.00000 0 -21395652.002 12674087.858 5692952.891 10 0 59541 22500.00000 0 -21796317.933 13012314.008 2542630.727 10 0 59541 23400.00000 0 -21833556.333 13182297.034 -657068.035 10 0 59541 24300.00000 0 -21532159.360 13135346.041 -3844011.458 10 0 59541 25200.00000 0 -20927969.339 12830040.624 -6956327.455 10 0 59541 26100.00000 0 -20066248.057 12234201.231 -9933605.123 10 0 59541 27000.00000 0 -18999669.498 11326480.122 -12718066.502 10 0 59541 27900.00000 0 -17786021.046 10097505.184 -15255685.939 10 0 59541 28800.00000 0 -16485710.238 8550527.818 -17497235.356 10 0 59541 29700.00000 0 -15159182.053 6701546.894 -19399235.461 10 0 59541 30600.00000 0 -13864355.122 4578902.587 -20924794.925 10 0 59541 31500.00000 0 -12654184.203 2222356.158 -22044321.755 10 0 59541 32400.00000 0 -11574450.683 -318307.109 -22736093.719 10 0 59541 33300.00000 0 -10661873.131 -2985094.818 -22986677.339 10 0 59541 34200.00000 0 -9942616.464 -5713969.852 -22791187.724 10 0 59541 35100.00000 0 -9431261.576 -8437269.659 -22153384.462 10 0 59541 36000.00000 0 -9130278.093 -11086283.239 -21085601.699 10 0 59541 36900.00000 0 -9030021.998 -13593879.879 -19608513.464 10 0 59541 37800.00000 0 -9109257.981 -15897081.476 -17750738.318 10 0 59541 38700.00000 0 -9336184.493 -17939472.398 -15548290.260 10 0 59541 39600.00000 0 -9669918.433 -19673347.122 -13043885.857 10 0 59541 40500.00000 0 -10062376.972 -21061506.687 -10286120.246 10 0 59541 41400.00000 0 -10460477.215 -22078629.252 -7328527.369 10 0 59541 42300.00000 0 -10808560.763 -22712157.597 -4228542.324 10 0 59541 43200.00000 0 -11050940.457 -22962666.593 -1046385.756 10 0 59541 44100.00000 0 -11134461.147 -22843695.347 2156107.961 10 0 59541 45000.00000 0 -11010965.492 -22381051.271 5316695.562 10 0 59541 45900.00000 0 -10639559.559 -21611615.671 8373938.860 10 0 59541 46800.00000 0 -9988581.358 -20581701.491 11268403.622 10 0 59541 47700.00000 0 -9037187.936 -19345032.855 13943819.353 10 0 59541 48600.00000 0 -7776492.802 -17960431.979 16348176.891 10 0 59541 49500.00000 0 -6210204.425 -16489311.328 18434742.092 10 0 59541 50400.00000 0 -4354737.757 -14993076.957 20162965.624 10 0 59541 51300.00000 0 -2238792.894 -13530552.507 21499271.208 10 0 59541 52200.00000 0 97582.613 -12155532.159 22417707.167 10 0 59541 53100.00000 0 2604409.500 -10914565.220 22900448.898 10 0 59541 54000.00000 0 5223612.432 -9845064.960 22938142.895 10 0 59541 54900.00000 0 7891199.843 -8973820.472 22530086.027 10 0 59541 55800.00000 0 10539697.882 -8315973.333 21684236.853 10 0 59541 56700.00000 0 13100737.874 -7874501.138 20417058.989 10 0 59541 57600.00000 0 15507690.271 -7640228.710 18753199.607 10 0 59541 58500.00000 0 17698236.016 -7592365.653 16725009.278 10 0 59541 59400.00000 0 19616768.842 -7699546.747 14371912.363 10 0 59541 60300.00000 0 21216528.980 -7921330.594 11739639.990 10 0 59541 61200.00000 0 22461379.765 -8210092.613 8879340.428 10 0 59541 62100.00000 0 23327153.586 -8513231.875 5846584.100 10 0 59541 63000.00000 0 23802511.553 -8775597.940 2700282.528 10 0 59541 63900.00000 0 23889281.568 -8942034.612 -498457.487 10 0 59541 64800.00000 0 23602261.420 -8959932.525 -3687522.011 10 0 59541 65700.00000 0 22968495.950 -8781682.111 -6804997.052 10 0 59541 66600.00000 0 22026059.412 -8366922.760 -9790370.777 10 0 59541 67500.00000 0 20822394.872 -7684492.607 -12585707.291 10 0 59541 68400.00000 0 19412280.966 -6713996.072 -15136769.171 10 0 59541 69300.00000 0 17855511.817 -5446922.452 -17394066.922 10 0 59541 70200.00000 0 16214387.654 -3887267.736 -19313815.352 10 0 59541 71100.00000 0 14551121.301 -2051632.613 -20858778.725 10 0 59541 72000.00000 0 12925268.965 31208.389 -21998988.825 10 0 59541 72900.00000 0 11391292.388 2321249.787 -22712322.637 10 0 59541 73800.00000 0 9996353.683 4768671.979 -22984929.047 10 0 59541 74700.00000 0 8778434.353 7315674.220 -22811496.652 10 0 59541 75600.00000 0 7764856.327 9898648.858 -22195357.824 10 0 59541 76500.00000 0 6971266.063 12450607.716 -21148426.945 10 0 59541 77400.00000 0 6401123.567 14903760.893 -19690973.785 10 0 59541 78300.00000 0 6045717.133 17192141.875 -17851235.918 10 0 59541 79200.00000 0 5884702.721 19254170.609 -15664877.003 10 0 59541 80100.00000 0 5887145.006 21035048.372 -13174300.709 10 0 59541 81000.00000 0 6013016.050 22488885.035 -10427832.853 10 0 59541 81900.00000 0 6215088.241 23580470.109 -7478786.941 10 0 59541 82800.00000 0 6441141.372 24286613.476 -4384430.901 10 0 59541 83700.00000 0 6636390.303 24596999.645 -1204874.836 10 0 59541 84600.00000 0 6746030.000 24514519.583 1998098.530 10 0 59541 85500.00000 0 6717789.667 24055066.133 5162237.596 10 0 59542 0.00000 0 6504387.002 23246801.697 8226035.682 10 0 59542 900.00000 0 6065777.591 22128928.656 11129932.293 10 0 59542 1800.00000 0 5371103.517 20750015.608 13817473.710 10 0 59542 2700.00000 0 4400257.251 19165948.708 16236415.296 10 0 59542 3600.00000 0 3144993.823 17437595.597 18339739.532 10 0 59542 4500.00000 0 1609543.118 15628280.038 20086571.382 10 0 59542 5400.00000 0 -189304.670 13801173.576 21442972.906 10 0 59542 6300.00000 0 -2222645.174 12016713.683 22382601.883 10 0 59542 7200.00000 0 -4450419.926 10330156.538 22887221.884 10 0 59542 8100.00000 0 -6822851.201 8789366.579 22947054.283 10 0 59542 9000.00000 0 -9282292.659 7432934.772 22560965.774 10 0 59542 9900.00000 0 -11765419.311 6288703.654 21736488.009 10 0 59542 10800.00000 0 -14205666.290 5372759.909 20489669.228 10 0 59542 11700.00000 0 -16535815.469 4688935.611 18844760.817 10 0 59542 12600.00000 0 -18690622.637 4228837.929 16833744.842 10 0 59542 13500.00000 0 -20609376.249 3972404.882 14495711.633 10 0 59542 14400.00000 0 -22238281.464 3888962.657 11876099.306 10 0 59542 15300.00000 0 -23532570.289 3938738.955 9025809.900 10 0 59542 16200.00000 0 -24458250.047 4074767.608 6000219.229 10 0 59542 17100.00000 0 -24993417.441 4245103.209 2858099.672 10 0 59542 18000.00000 0 -25129083.567 4395251.461 -339522.937 10 0 59542 18900.00000 0 -24869475.794 4470711.779 -3530555.887 10 0 59542 19800.00000 0 -24231804.373 4419524.014 -6653046.321 10 0 59542 20700.00000 0 -23245504.088 4194711.026 -9646384.279 10 0 59542 21600.00000 0 -21950983.304 3756513.307 -12452478.492 10 0 59542 22500.00000 0 -20397933.337 3074320.714 -15016882.023 10 0 59542 23400.00000 0 -18643269.409 2128219.236 -17289845.895 10 0 59542 24300.00000 0 -16748789.620 910086.995 -19227280.545 10 0 59542 25200.00000 0 -14778649.930 -575807.424 -20791606.919 10 0 59542 26100.00000 0 -12796760.505 -2312730.263 -21952481.187 10 0 59542 27000.00000 0 -10864211.791 -4271935.715 -22687379.684 10 0 59542 27900.00000 0 -9036837.049 -6413629.132 -22982033.305 10 0 59542 28800.00000 0 -7363012.367 -8688401.329 -22830703.361 10 0 59542 29700.00000 0 -5881784.968 -11039075.563 -22236293.827 10 0 59542 30600.00000 0 -4621407.000 -13402891.592 -21210297.810 10 0 59542 31500.00000 0 -3598335.159 -15713937.079 -19772579.025 10 0 59542 32400.00000 0 -2816737.095 -17905726.249 -17950992.038 10 0 59542 33300.00000 0 -2268524.530 -19913819.319 -15780847.975 10 0 59542 34200.00000 0 -1933911.092 -21678374.088 -13304235.303 10 0 59542 35100.00000 0 -1782470.919 -23146523.672 -10569208.143 10 0 59542 36000.00000 0 -1774653.011 -24274481.135 -7628857.175 10 0 59542 36900.00000 0 -1863687.091 -25029282.866 -4540280.780 10 0 59542 37800.00000 0 -1997800.053 -25390097.431 -1363476.183 10 0 59542 38700.00000 0 -2122648.723 -25349044.676 1839827.843 10 0 59542 39600.00000 0 -2183865.388 -24911490.316 5007373.632 10 0 59542 40500.00000 0 -2129607.511 -24095803.378 8077588.780 10 0 59542 41400.00000 0 -1913002.778 -22932586.496 10990787.624 10 0 59542 42300.00000 0 -1494384.962 -21463411.388 13690335.928 10 0 59542 43200.00000 0 -843224.971 -19739112.695 16123755.633 10 0 59542 44100.00000 0 60325.685 -17817712.019 18243747.749 10 0 59542 45000.00000 0 1224345.229 -15762059.454 20009113.220 10 0 59542 45900.00000 0 2644552.788 -13637291.651 21385553.881 10 0 59542 46800.00000 0 4304246.280 -11508212.881 22346338.081 10 0 59542 47700.00000 0 6174770.615 -9436708.636 22872818.334 10 0 59542 48600.00000 0 8216497.581 -7479299.529 22954791.310 10 0 59542 49500.00000 0 10380277.354 -5684937.146 22590693.585 10 0 59542 50400.00000 0 12609301.712 -4093133.232 21787629.618 10 0 59542 51300.00000 0 14841301.926 -2732499.340 20561231.665 10 0 59542 52200.00000 0 17010990.242 -1619756.854 18935354.394 10 0 59542 53100.00000 0 19052643.523 -759257.600 16941610.140 10 0 59542 54000.00000 0 20902721.684 -143033.745 14618753.669 10 0 59542 54900.00000 0 22502411.891 248626.418 12011928.245 10 0 59542 55800.00000 0 23799992.407 446102.284 9171787.520 10 0 59542 56700.00000 0 24752917.429 488910.873 6153510.242 10 0 59542 57600.00000 0 25329535.803 423788.517 3015726.901 10 0 59542 58500.00000 0 25510371.764 302466.224 -180620.602 10 0 59542 59400.00000 0 25288914.204 179233.622 -3373463.901 10 0 59542 60300.00000 0 24671881.598 108395.217 -6500814.426 10 0 59542 61200.00000 0 23678951.738 141727.172 -9501967.181 10 0 59542 62100.00000 0 22341967.886 326042.726 -12318678.434 10 0 59542 63000.00000 0 20703654.876 700969.644 -14896294.406 10 0 59542 63900.00000 0 18815899.154 1297034.017 -17184808.987 10 0 59542 64800.00000 0 16737664.813 2134131.744 -19139830.282 10 0 59542 65700.00000 0 14532632.663 3220452.656 -20723437.633 10 0 59542 66600.00000 0 12266660.693 4551903.202 -21904913.008 10 0 59542 67500.00000 0 10005171.413 6112052.779 -22661333.189 10 0 59542 68400.00000 0 7810574.285 7872606.959 -22978011.879 10 0 59542 69300.00000 0 5739829.865 9794388.946 -22848783.567 10 0 59542 70200.00000 0 3842256.123 11828789.495 -22276123.947 10 0 59542 71100.00000 0 2157667.285 13919626.085 -21271104.593 10 0 59542 72000.00000 0 714921.791 16005334.990 -19853182.509 10 0 59542 72900.00000 0 -469061.080 18021405.969 -18049828.206 10 0 59542 73800.00000 0 -1389775.763 19902958.987 -15895998.806 10 0 59542 74700.00000 0 -2055077.056 21587356.023 -13433465.727 10 0 59542 75600.00000 0 -2484601.848 23016739.310 -10710009.175 10 0 59542 76500.00000 0 -2708690.883 24140389.958 -7778494.444 10 0 59542 77400.00000 0 -2766856.484 24916808.010 -4695847.516 10 0 59542 78300.00000 0 -2705861.494 25315426.384 -1521949.653 10 0 59542 79200.00000 0 -2577491.147 25317886.254 1681527.571 10 0 59542 80100.00000 0 -2436112.787 24918819.718 4852323.740 10 0 59542 81000.00000 0 -2336127.476 24126106.293 7928803.772 10 0 59542 81900.00000 0 -2329422.235 22960591.974 10851160.600 10 0 59542 82800.00000 0 -2462931.696 21455282.275 13562582.245 10 0 59542 83700.00000 0 -2776413.322 19654042.964 16010360.050 10 0 59542 84600.00000 0 -3300531.281 17609862.845 18146916.114 10 0 59542 85500.00000 0 -4055330.855 15382751.467 19930729.626 10 0 59543 0.00000 0 -5049168.629 13037360.002 21327144.004 10 0 59543 900.00000 0 -6278145.026 10640423.458 22309039.976 10 0 59543 1800.00000 0 -7726062.537 8258134.194 22857359.998 10 0 59543 2700.00000 0 -9364914.041 5953551.840 22961476.727 10 0 59543 3600.00000 0 -11155880.265 3784160.295 22619396.816 10 0 59543 4500.00000 0 -13050795.826 1799671.750 21837797.185 10 0 59543 5400.00000 0 -14994023.099 40168.609 20631893.191 10 0 59543 6300.00000 0 -16924656.193 -1465340.364 19025141.307 10 0 59543 7200.00000 0 -18778963.279 -2699890.529 17048782.096 10 0 59543 8100.00000 0 -20492965.584 -3659019.363 14741232.225 10 0 59543 9000.00000 0 -22005045.449 -4350694.224 12147337.128 10 0 59543 9900.00000 0 -23258474.376 -4794714.285 9317498.773 10 0 59543 10800.00000 0 -24203755.335 -5021613.220 6306695.313 10 0 59543 11700.00000 0 -24800681.099 -5071110.115 3173411.714 10 0 59543 12600.00000 0 -25020022.271 -4990175.075 -21497.705 10 0 59543 13500.00000 0 -24844774.113 -4830792.240 -3215992.497 10 0 59543 14400.00000 0 -24270909.824 -4647515.618 -6348051.829 10 0 59543 15300.00000 0 -23307608.624 -4494921.798 -9356878.922 10 0 59543 16200.00000 0 -21976949.099 -4425067.835 -12184080.609 10 0 59543 17100.00000 0 -20313080.639 -4485062.268 -14774798.999 10 0 59543 18000.00000 0 -18360907.678 -4714852.254 -17078773.238 10 0 59543 18900.00000 0 -16174341.674 -5145320.571 -19051311.056 10 0 59543 19800.00000 0 -13814193.629 -5796773.098 -20654151.658 10 0 59543 20700.00000 0 -11345794.802 -6677880.855 -21856203.711 10 0 59543 21600.00000 0 -8836444.215 -7785121.648 -22634144.767 10 0 59543 22500.00000 0 -6352788.502 -9102745.487 -22972871.071 10 0 59543 23400.00000 0 -3958242.339 -10603266.075 -22865789.476 10 0 59543 24300.00000 0 -1710555.710 -12248458.831 -22314946.102 10 0 59543 25200.00000 0 340371.888 -13990824.858 -21330989.291 10 0 59543 26100.00000 0 2154340.367 -15775460.745 -19932967.309 10 0 59543 27000.00000 0 3702285.174 -17542257.214 -18147964.328 10 0 59543 27900.00000 0 4967241.776 -19228335.642 -16010581.018 10 0 59543 28800.00000 0 5944799.055 -20770621.304 -13562269.145 10 0 59543 29700.00000 0 6643023.501 -22108446.103 -10850532.330 10 0 59543 30600.00000 0 7081858.166 -23186071.955 -7928007.753 10 0 59543 31500.00000 0 7292022.257 -23955028.835 -4851446.278 10 0 59543 32400.00000 0 7313458.431 -24376168.969 -1680610.500 10 0 59543 33300.00000 0 7193393.947 -24421350.256 1522887.842 10 0 59543 34200.00000 0 6984098.274 -24074677.400 4696788.136 10 0 59543 35100.00000 0 6740432.772 -23333247.758 7779395.060 10 0 59543 36000.00000 0 6517296.911 -22207369.775 10710782.441 10 0 59543 36900.00000 0 6367080.009 -20720244.151 13433962.675 10 0 59543 37800.00000 0 6337227.154 -18907120.584 15895998.420 10 0 59543 38700.00000 0 6468023.165 -16813965.038 18049034.523 10 0 59543 39600.00000 0 6790689.021 -14495693.154 19851229.789 10 0 59543 40500.00000 0 7325871.916 -12014043.516 21267570.496 10 0 59543 41400.00000 0 8082593.326 -9435179.431 22270549.962 10 0 59543 42300.00000 0 9057700.030 -6827119.214 22840701.243 10 0 59543 43200.00000 0 10235841.816 -4257101.724 22966973.019 10 0 59543 44100.00000 0 11589977.402 -1788996.432 22646941.726 10 0 59543 45000.00000 0 13082387.890 519134.686 21886856.166 10 0 59543 45900.00000 0 14666155.787 2617222.820 20701513.949 10 0 59543 46800.00000 0 16287048.098 4465035.522 19113972.265 10 0 59543 47700.00000 0 17885724.973 6033601.749 17155098.591 10 0 59543 48600.00000 0 19400181.684 7306160.599 14862969.956 10 0 59543 49500.00000 0 20768321.820 8278595.531 12282132.223 10 0 59543 50400.00000 0 21930553.864 8959337.290 9462733.683 10 0 59543 51300.00000 0 22832302.228 9368741.091 6459549.694 10 0 59543 52200.00000 0 23426327.240 9537965.635 3330917.270 10 0 59543 53100.00000 0 23674756.455 9507402.445 137600.538 10 0 59543 54000.00000 0 23550741.764 9324722.921 -3058390.709 10 0 59543 54900.00000 0 23039672.410 9042626.582 -6195006.151 10 0 59543 55800.00000 0 22139892.738 8716386.423 -9211359.973 10 0 59543 56700.00000 0 20862894.300 8401295.812 -12048912.186 10 0 59543 57600.00000 0 19232973.984 8150125.301 -14652603.217 10 0 59543 58500.00000 0 17286372.262 8010697.099 -16971919.658 10 0 59543 59400.00000 0 15069927.277 8023679.852 -18961870.804 10 0 59543 60300.00000 0 12639300.562 8220696.901 -20583857.412 10 0 59543 61200.00000 0 10056847.993 8622827.878 -21806416.316 10 0 59543 62100.00000 0 7389223.973 9239566.927 -22605827.077 10 0 59543 63000.00000 0 4704817.756 10068281.724 -22966569.489 10 0 59543 63900.00000 0 2071127.672 11094196.483 -22881623.509 10 0 59543 64800.00000 0 -447818.740 12290900.395 -22352606.111 10 0 59543 65700.00000 0 -2793892.553 13621361.007 -21389742.464 10 0 59543 66600.00000 0 -4917039.393 15039401.049 -20011671.764 10 0 59543 67500.00000 0 -6777114.111 16491577.806 -18245091.080 10 0 59543 68400.00000 0 -8345298.825 17919387.247 -16124243.436 10 0 59543 69300.00000 0 -9605046.055 19261701.258 -13690259.360 10 0 59543 70200.00000 0 -10552508.452 20457336.341 -10990363.918 10 0 59543 71100.00000 0 -11196437.885 21447646.203 -8076963.904 10 0 59543 72000.00000 0 -11557558.806 22179029.250 -5006632.510 10 0 59543 72900.00000 0 -11667442.923 22605245.223 -1839010.905 10 0 59543 73800.00000 0 -11566933.296 22689442.878 1364351.934 10 0 59543 74700.00000 0 -11304184.996 22405812.530 4541198.226 10 0 59543 75600.00000 0 -10932405.877 21740792.952 7629775.488 10 0 59543 76500.00000 0 -10507393.737 20693780.842 10570041.519 10 0 59543 77400.00000 0 -10084974.844 19277312.093 13304836.109 10 0 59543 78300.00000 0 -9718452.964 17516706.378 15780996.136 10 0 59543 79200.00000 0 -9456177.505 15449189.267 17950391.940 10 0 59543 80100.00000 0 -9339334.233 13122528.096 19770864.478 10 0 59543 81000.00000 0 -9400052.434 10593238.231 21207045.034 10 0 59543 81900.00000 0 -9659908.870 7924434.243 22231041.719 10 0 59543 82800.00000 0 -10128891.980 5183415.357 22822979.629 10 0 59543 83700.00000 0 -10804870.271 2439085.366 22971384.621 10 0 59543 84600.00000 0 -11673587.575 -240686.091 22673403.616 10 0 59543 85500.00000 0 -12709185.624 -2791651.625 21934857.472 10 0 59544 0.00000 0 -13875232.170 -5155616.505 20770125.815 10 0 59544 900.00000 0 -15126212.385 -7282612.417 19201865.416 10 0 59544 1800.00000 0 -16409419.558 -9132721.920 17260569.285 10 0 59544 2700.00000 0 -17667168.006 -10677483.051 14983972.816 10 0 59544 3600.00000 0 -18839233.845 -11900813.494 12416319.833 10 0 59544 4500.00000 0 -19865421.703 -12799418.345 9607502.103 10 0 59544 5400.00000 0 -20688149.369 -13382665.587 6612089.017 10 0 59544 6300.00000 0 -21254941.500 -13671935.902 3488266.257 10 0 59544 7200.00000 0 -21520727.235 -13699475.447 296704.236 10 0 59544 8100.00000 0 -21449844.745 -13506801.170 -2900621.490 10 0 59544 9000.00000 0 -21017667.970 -13142726.970 -6041634.696 10 0 59544 9900.00000 0 -20211786.750 -12661094.928 -9065364.056 10 0 59544 10800.00000 0 -19032690.298 -12118308.117 -11913126.169 10 0 59544 11700.00000 0 -17493924.847 -11570769.740 -14529662.985 10 0 59544 12600.00000 0 -15621718.410 -11072337.001 -16864211.482 10 0 59544 13500.00000 0 -13454087.815 -10671897.351 -18871485.093 10 0 59544 14400.00000 0 -11039464.733 -10411169.315 -20512548.240 10 0 59544 15300.00000 0 -8434897.388 -10322820.511 -21755567.484 10 0 59544 16200.00000 0 -5703902.102 -10428982.004 -22576425.345 10 0 59544 17100.00000 0 -2914053.094 -10740221.464 -22959185.495 10 0 59544 18000.00000 0 -134409.831 -11255018.407 -22896400.716 10 0 59544 18900.00000 0 2567112.363 -11959763.799 -22389258.010 10 0 59544 19800.00000 0 5126320.395 -12829284.535 -21447558.067 10 0 59544 20700.00000 0 7485164.145 -13827871.360 -20089529.301 10 0 59544 21600.00000 0 9593900.425 -14910767.839 -18341479.635 10 0 59544 22500.00000 0 11412911.100 -16026058.633 -16237292.114 10 0 59544 23400.00000 0 12914100.503 -17116878.452 -13817773.456 10 0 59544 24300.00000 0 14081814.633 -18123849.418 -11129867.372 10 0 59544 25200.00000 0 14913244.456 -18987644.650 -8225747.286 10 0 59544 26100.00000 0 15418296.971 -19651570.193 -5161805.584 10 0 59544 27000.00000 0 15618940.140 -20064056.288 -1997558.790 10 0 59544 27900.00000 0 15548049.831 -20180952.433 1205510.119 10 0 59544 28800.00000 0 15247807.979 -19967528.662 4385149.377 10 0 59544 29700.00000 0 14767720.262 -19400097.706 7479552.373 10 0 59544 30600.00000 0 14162337.706 -18467188.545 10428563.682 10 0 59544 31500.00000 0 13488779.235 -17170220.822 13174852.994 10 0 59544 32400.00000 0 12804160.583 -15523650.681 15665033.569 10 0 59544 33300.00000 0 12163038.910 -13554580.857 17850703.013 10 0 59544 34200.00000 0 11614981.577 -11301850.587 19689385.796 10 0 59544 35100.00000 0 11202362.211 -8814642.670 21145359.177 10 0 59544 36000.00000 0 10958477.278 -6150665.265 22190346.611 10 0 59544 36900.00000 0 10906062.737 -3373983.796 22804065.399 10 0 59544 37800.00000 0 11056273.308 -552592.769 22974618.380 10 0 59544 38700.00000 0 11408167.270 2244172.018 22698722.422 10 0 59544 39600.00000 0 11948718.416 4948273.754 21981769.619 10 0 59544 40500.00000 0 12653354.588 7495558.349 20837720.276 10 0 59544 41400.00000 0 13487000.098 9828175.007 19288829.858 10 0 59544 42300.00000 0 14405578.161 11896733.770 17365215.213 10 0 59544 43200.00000 0 15357910.138 13662111.274 15104268.411 10 0 59544 44100.00000 0 16287931.655 15096830.537 12549929.356 10 0 59544 45000.00000 0 17137132.237 16185958.304 9751831.229 10 0 59544 45900.00000 0 17847115.611 16927483.733 6764335.228 10 0 59544 46800.00000 0 18362172.602 17332163.794 3645473.301 10 0 59544 47700.00000 0 18631757.917 17422843.130 455819.625 10 0 59544 48600.00000 0 18612766.070 17233278.203 -2742687.089 10 0 59544 49500.00000 0 18271510.084 16806516.356 -5887947.337 10 0 59544 50400.00000 0 17585319.160 16192899.018 -8918906.845 10 0 59544 51300.00000 0 16543687.501 15447774.105 -11776741.239 10 0 59544 52200.00000 0 15148925.379 14629014.649 -14405996.261 10 0 59544 53100.00000 0 13416284.504 13794448.684 -16755661.327 10 0 59544 54000.00000 0 11373551.711 12999308.904 -18780155.838 10 0 59544 54900.00000 0 9060127.167 12293809.463 -20440209.501 10 0 59544 55800.00000 0 6525624.808 11720951.788 -21703620.022 10 0 59544 56700.00000 0 3828052.379 11314651.396 -22545874.109 10 0 59544 57600.00000 0 1031645.797 11098264.151 -22950620.324 10 0 59544 58500.00000 0 -1795553.159 11083573.636 -22909985.036 10 0 59544 59400.00000 0 -4584276.403 11270281.992 -22424725.727 10 0 59544 60300.00000 0 -7266660.434 11646025.637 -21504218.698 10 0 59544 61200.00000 0 -9778820.394 12186915.383 -20166281.259 10 0 59544 62100.00000 0 -12063261.481 12858578.598 -18436831.433 10 0 59544 63000.00000 0 -14071028.485 13617660.105 -16349391.113 10 0 59544 63900.00000 0 -15763504.688 14413719.158 -13944441.637 10 0 59544 64800.00000 0 -17113785.932 15191443.130 -11268643.491 10 0 59544 65700.00000 0 -18107573.030 15893084.952 -8373934.581 10 0 59544 66600.00000 0 -18743545.655 16461021.636 -5316524.153 10 0 59544 67500.00000 0 -19033202.541 16840325.756 -2155801.589 10 0 59544 68400.00000 0 -19000175.156 16981240.873 1046818.741 10 0 59544 69300.00000 0 -18679044.242 16841455.667 4229093.783 10 0 59544 70200.00000 0 -18113709.650 16388079.764 7329165.569 10 0 59544 71100.00000 0 -17355382.836 15599236.777 10286768.266 10 0 59544 72000.00000 0 -16460287.420 14465206.147 13044404.295 10 0 59544 72900.00000 0 -15487165.493 12989064.491 15548466.089 10 0 59544 73800.00000 0 -14494695.582 11186798.256 17750281.220 10 0 59544 74700.00000 0 -13538931.697 9086881.913 19607060.212 10 0 59544 75600.00000 0 -12670871.833 6729338.378 21082728.609 10 0 59544 76500.00000 0 -11934258.580 4164320.077 22148627.232 10 0 59544 77400.00000 0 -11363704.484 1450269.223 22784067.271 10 0 59544 78300.00000 0 -10983220.889 -1348266.719 22976729.847 10 0 59544 79200.00000 0 -10805211.839 -4163074.078 22722902.657 10 0 59544 80100.00000 0 -10829974.997 -6924865.648 22027549.460 10 0 59544 81000.00000 0 -11045730.106 -9565919.891 20904211.339 10 0 59544 81900.00000 0 -11429173.397 -12022657.673 19374741.730 10 0 59544 82800.00000 0 -11946534.210 -14238050.086 17468880.439 10 0 59544 83700.00000 0 -12555089.042 -16163758.002 15223674.777 10 0 59544 84600.00000 0 -13205068.933 -17761915.158 12682758.884 10 0 59544 85500.00000 0 -13841879.568 -19006481.285 9895505.143 99